Location: Banska Bystrica
(0.0000°N, 19.1500°E)
Time: 04:13:57
(UTC+01:00)

ARIANE 5 R/B - Pass Details

Date: 19 February 2019
Orbit: 272 x 34020 km, 2.2° (Epoch: 19 March)

Event Time Altitude Azimuth Distance (km) Brightness Sun altitude
Rises 18:15:57 0° 273° (W) 1,937 6.6 -4.6°
Reaches altitude 10° 18:17:12 10° 276° (W) 1,280 5.2 -4.9°
Maximum altitude 18:19:28 71° 2° (N) 558 1.8 -5.5°
Drops below altitude 10° 18:26:51 10° 86° (E) 4,044 5.5 -7.3°
Enters shadow 18:28:09 - 86° (E) 4,669 5.8 -7.6°
